Regional Weather Roundup
Issued by NWS Albany, NY

Home | Current Version | Previous Version | Text Only | Print | Product List | Glossary On
Versions: 1 2 3 4 5 6 7 8 9 10 11 12 13 14 15 16 17 18 19 20 21 22 23 24 25 26 27 28 29 30 31 32 33 34 35 36 37 38 39 40 41 42 43 44 45 46 47 48 49 50
915
ASUS41 KALY 240010
RWRALY

NEW YORK STATE HOURLY WEATHER ROUNDUP
NATIONAL WEATHER SERVICE ALBANY NY
700 PM EST MON JAN 23 2017

NOTE: "FAIR" INDICATES FEW OR NO CLOUDS BELOW 12,000 FEET WITH NO
SIGNIFICANT WEATHER AND/OR NO OBSTRUCTIONS TO VISIBILITY.

NYZ032-033-038>043-046>054-057>066-NYZ062>081-082-084-240100-
EAST


CITY           SKY/WX    TMP DP  RH WIND       PRES   REMARKS
ALBANY         LGTSLEET  35  25  66 NE13      29.87S WCI  26
GLENS FALLS    CLOUDY    34  23  64 NE13      29.91R WCI  25
POUGHKEEPSIE   RAIN      34  29  82 N10       29.76R WCI  26
NEWBURGH       LGT RAIN  34  32  93 NE17G25   29.74S FOG     WCI  23
MONTGOMERY     RAIN      34  30  85 NE18      29.71F FOG     WCI  23
WHITE PLAINS   LGT RAIN  35  32  88 NE12G18   29.67R FOG     WCI  27
ISLIP          RAIN      38  36  92 NE23G32   29.65R FOG     WCI  27
NEW YORK CITY  RAIN      39  35  86 NE23      29.65F FOG     WCI  28
CENTRAL PARK   RAIN      36  34  92 NE20G30   29.67F FOG     WCI  25
$$

NYZ005>009-017-018-044>046-055-056-240100-
CENTRAL


CITY           SKY/WX    TMP DP  RH WIND       PRES   REMARKS
FULTON         MOCLDY    36  25  64 E6        29.80R WCI  31
SYRACUSE       CLOUDY    35  25  66 E14       29.78S WCI  26
ROME           CLOUDY    35  25  66 E17G28    29.84R WCI  25
ELMIRA         LGT RAIN  35  29  78 E8        29.71R WCI  29
BINGHAMTON     FRZ RAIN  30  26  85 E12       29.68S WCI  20
MONTICELLO     CLOUDY    30  28  93 NE20G28   29.67F WCI  18
$$

NYZ026>034-041>043-087-240100-
NORTH


CITY           SKY/WX    TMP DP  RH WIND       PRES   REMARKS
WATERTOWN      CLOUDY    32  30  92 NE10      29.85R WCI  24
FORT DRUM      NOT AVBL
OGDENSBURG     FAIR      32  28  83 NE10G16   29.89S WCI  24
MASSENA        CLOUDY    31  24  75 NE17      29.93F WCI  19
SARANAC LAKE   CLOUDY    28  20  71 E10       29.81F WCI  19
PLATTSBURGH    MOCLDY    34  22  61 E3        29.95F
$$

NYZ001>004-010>016-019>021-085-240100-
WEST


CITY           SKY/WX    TMP DP  RH WIND       PRES   REMARKS
NIAGARA FALLS  MOCLDY    39  30  70 E15       29.75R WCI  31
BUFFALO        MOCLDY    38  29  70 NE17      29.74R WCI  28
DUNKIRK        CLOUDY    40  35  83 NE9       29.70R WCI  34
JAMESTOWN      CLOUDY    41  36  81 NE5       29.65R
WELLSVILLE     LGT RAIN  35  31  85 NE8       29.66S WCI  29
ROCHESTER      CLOUDY    37  27  67 E13G22    29.79R WCI  29
PENN YAN       CLOUDY    37  26  64 NE3       29.74R
$$

             KEY
       WCI = WIND CHILL INDEX
       VSB = VISIBILITY
       HX  = HEAT INDEX
$$




USA.gov is the U.S. government's official web portal to all federal, state and local government web resources and services.